�������l�o���
Date,Time,MP-1(��Sv/h),MP-2(��Sv/h),MP-3(��Sv/h),MP-4(��Sv/h),MP-5(��Sv/h),MP-6(��Sv/h),MP-7(��Sv/h),MP-8(��Sv/h),����,����(m/s),���J
2020/03/29,00:00,0.684,0.973,0.659,1.200,0.854,0.396,0.693,0.655,�k,4.9,�L
2020/03/29,00:10,0.685,0.974,0.658,1.200,0.854,0.394,0.690,0.654,�k,3.6,�L
2020/03/29,00:20,0.685,0.974,0.657,1.198,0.853,0.397,0.690,0.654,�k�k��,3.1,�L
2020/03/29,00:30,0.683,0.972,0.658,1.198,0.851,0.393,0.687,0.654,�k��,4.0,�L
2020/03/29,00:40,0.682,0.969,0.658,1.194,0.850,0.395,0.688,0.653,�k�k��,4.8,�L
2020/03/29,00:50,0.680,0.972,0.657,1.191,0.849,0.395,0.688,0.654,�k�k��,7.5,�L
2020/03/29,01:00,0.680,0.968,0.656,1.190,0.850,0.395,0.688,0.655,�k,7.9,�L
2020/03/29,01:10,0.680,0.965,0.657,1.189,0.850,0.396,0.687,0.653,�k,9.4,�L
2020/03/29,01:20,0.680,0.970,0.654,1.188,0.849,0.393,0.686,0.655,�k�k��,8.7,�L
2020/03/29,01:30,0.680,0.969,0.653,1.190,0.846,0.391,0.687,0.654,�k�k��,9.4,�L
2020/03/29,01:40,0.677,0.966,0.651,1.190,0.846,0.391,0.686,0.653,�k�k��,9.3,�L
2020/03/29,01:50,0.676,0.963,0.652,1.189,0.845,0.392,0.684,0.652,�k�k��,9.0,�L
2020/03/29,02:00,0.676,0.961,0.650,1.185,0.842,0.390,0.685,0.653,�k,8.4,�L
2020/03/29,02:10,0.675,0.960,0.651,1.185,0.843,0.389,0.684,0.651,�k�k��,7.0,�L
2020/03/29,02:20,0.675,0.960,0.650,1.181,0.841,0.389,0.683,0.651,�k�k��,6.6,�L
2020/03/29,02:30,0.673,0.959,0.648,1.181,0.842,0.389,0.685,0.651,�k�k��,7.1,�L
2020/03/29,02:40,0.673,0.957,0.648,1.180,0.839,0.390,0.683,0.652,�k,5.9,�L
2020/03/29,02:50,0.673,0.959,0.647,1.180,0.838,0.387,0.683,0.652,�k�k��,7.6,�L
2020/03/29,03:00,0.672,0.954,0.648,1.177,0.836,0.388,0.680,0.652,�k�k��,8.0,�L
2020/03/29,03:10,0.671,0.957,0.647,1.177,0.837,0.388,0.682,0.650,�k�k��,7.2,�L
2020/03/29,03:20,0.669,0.952,0.646,1.175,0.835,0.388,0.681,0.652,�k�k��,8.8,�L
2020/03/29,03:30,0.668,0.952,0.645,1.170,0.831,0.387,0.679,0.649,�k�k��,8.2,�L
2020/03/29,03:40,0.667,0.949,0.642,1.168,0.832,0.387,0.680,0.649,�k�k��,7.9,�L
2020/03/29,03:50,0.665,0.949,0.642,1.168,0.828,0.386,0.679,0.649,�k�k��,8.2,�L
2020/03/29,04:00,0.664,0.948,0.641,1.165,0.827,0.387,0.677,0.647,�k�k��,8.4,�L
2020/03/29,04:10,0.663,0.944,0.639,1.163,0.824,0.387,0.676,0.648,�k�k��,9.0,�L
2020/03/29,04:20,0.662,0.944,0.638,1.163,0.824,0.386,0.677,0.648,�k�k��,8.1,�L
2020/03/29,04:30,0.661,0.941,0.636,1.162,0.822,0.387,0.675,0.645,�k�k��,7.9,�L
2020/03/29,04:40,0.660,0.939,0.636,1.160,0.820,0.386,0.674,0.647,�k�k��,8.6,�L
2020/03/29,04:50,0.655,0.936,0.633,1.160,0.819,0.385,0.673,0.646,�k�k��,8.1,�L
2020/03/29,05:00,0.655,0.933,0.632,1.158,0.816,0.386,0.671,0.645,�k�k��,7.9,�L
2020/03/29,05:10,0.653,0.928,0.630,1.154,0.813,0.387,0.671,0.643,�k�k��,8.5,�L
2020/03/29,05:20,0.651,0.924,0.626,1.149,0.810,0.385,0.670,0.644,�k�k��,8.4,�L
2020/03/29,05:30,0.649,0.920,0.627,1.150,0.805,0.383,0.669,0.644,�k�k��,8.8,�L
2020/03/29,05:40,0.646,0.919,0.623,1.146,0.803,0.383,0.669,0.642,�k�k��,8.5,�L
2020/03/29,05:50,0.644,0.911,0.620,1.143,0.798,0.384,0.667,0.643,�k�k��,7.5,�L
2020/03/29,06:00,0.643,0.907,0.619,1.140,0.797,0.382,0.667,0.640,�k�k��,8.7,�L
2020/03/29,06:10,0.639,0.907,0.616,1.138,0.797,0.383,0.666,0.641,�k�k��,8.5,�L
2020/03/29,06:20,0.635,0.904,0.616,1.136,0.791,0.381,0.666,0.641,�k�k��,7.2,�L
2020/03/29,06:30,0.636,0.900,0.614,1.133,0.789,0.381,0.668,0.640,�k�k��,8.7,�L
2020/03/29,06:40,0.634,0.901,0.614,1.135,0.787,0.380,0.666,0.642,�k�k��,9.1,�L
2020/03/29,06:50,0.631,0.895,0.610,1.131,0.784,0.380,0.665,0.638,�k�k��,8.3,�L
2020/03/29,07:00,0.630,0.894,0.608,1.131,0.782,0.381,0.666,0.639,�k�k��,8.2,�L
2020/03/29,07:10,0.628,0.890,0.606,1.128,0.778,0.380,0.666,0.640,�k�k��,9.2,�L
2020/03/29,07:20,0.626,0.884,0.607,1.126,0.777,0.379,0.665,0.638,�k�k��,9.0,�L
2020/03/29,07:30,0.625,0.885,0.608,1.130,0.775,0.378,0.665,0.638,�k�k��,8.4,�L
2020/03/29,07:40,0.625,0.880,0.605,1.125,0.774,0.379,0.665,0.638,�k�k��,8.3,�L
2020/03/29,07:50,0.623,0.877,0.604,1.126,0.773,0.379,0.664,0.639,�k�k��,8.3,�L
2020/03/29,08:00,0.620,0.875,0.601,1.122,0.769,0.378,0.664,0.637,�k�k��,7.6,�L
2020/03/29,08:10,0.617,0.870,0.600,1.121,0.766,0.378,0.660,0.636,�k�k��,7.4,�L
2020/03/29,08:20,0.616,0.868,0.599,1.121,0.763,0.378,0.661,0.638,�k�k��,6.5,�L
2020/03/29,08:30,0.615,0.866,0.596,1.116,0.761,0.376,0.660,0.636,�k�k��,8.1,�L
2020/03/29,08:40,0.611,0.860,0.592,1.114,0.757,0.376,0.658,0.635,�k�k��,8.0,�L
2020/03/29,08:50,0.610,0.857,0.592,1.110,0.753,0.376,0.657,0.635,�k�k��,8.3,�L
2020/03/29,09:00,0.609,0.852,0.590,1.109,0.750,0.375,0.657,0.633,�k�k��,8.6,�L
2020/03/29,09:10,0.603,0.846,0.586,1.107,0.748,0.375,0.655,0.635,�k�k��,6.8,�L
2020/03/29,09:20,0.604,0.844,0.585,1.102,0.744,0.373,0.656,0.630,�k�k��,7.4,�L
2020/03/29,09:30,0.599,0.841,0.583,1.101,0.740,0.374,0.654,0.633,�k�k��,6.6,�L
2020/03/29,09:40,0.599,0.837,0.581,1.099,0.739,0.371,0.655,0.632,�k�k��,7.7,�L
2020/03/29,09:50,0.596,0.835,0.578,1.096,0.737,0.369,0.652,0.632,�k�k��,7.5,�L
2020/03/29,10:00,0.594,0.833,0.578,1.095,0.733,0.371,0.653,0.632,�k�k��,7.4,�L
2020/03/29,10:10,0.593,0.828,0.575,1.092,0.732,0.370,0.652,0.631,�k�k��,8.2,�L
2020/03/29,10:20,0.591,0.825,0.573,1.092,0.730,0.368,0.650,0.631,�k,8.3,�L
2020/03/29,10:30,0.589,0.822,0.572,1.090,0.725,0.369,0.651,0.631,�k�k��,6.7,�L
2020/03/29,10:40,0.587,0.819,0.571,1.087,0.722,0.368,0.651,0.630,�k�k��,7.2,�L
2020/03/29,10:50,0.586,0.815,0.568,1.088,0.719,0.367,0.649,0.629,�k�k��,7.0,�L
2020/03/29,11:00,0.584,0.812,0.567,1.084,0.718,0.368,0.649,0.629,�k�k��,7.2,�L
2020/03/29,11:10,0.580,0.808,0.565,1.083,0.715,0.367,0.646,0.627,�k�k��,5.6,�L
2020/03/29,11:20,0.577,0.803,0.563,1.077,0.709,0.365,0.642,0.624,�k�k��,7.5,�L
2020/03/29,11:30,0.575,0.799,0.560,1.072,0.706,0.363,0.642,0.623,�k�k��,7.1,�L
2020/03/29,11:40,0.573,0.792,0.556,1.069,0.701,0.363,0.638,0.620,�k�k��,8.9,�L
2020/03/29,11:50,0.569,0.787,0.555,1.064,0.698,0.361,0.640,0.620,�k�k��,8.8,�L
2020/03/29,12:00,0.569,0.785,0.551,1.061,0.692,0.362,0.638,0.619,�k�k��,8.9,�L
2020/03/29,12:10,0.566,0.782,0.549,1.054,0.691,0.360,0.636,0.620,�k�k��,9.7,�L
2020/03/29,12:20,0.564,0.778,0.545,1.052,0.686,0.359,0.635,0.618,�k�k��,9.1,�L
2020/03/29,12:30,0.561,0.774,0.543,1.048,0.684,0.357,0.632,0.620,�k��,8.9,�L
2020/03/29,12:40,0.561,0.768,0.542,1.048,0.680,0.357,0.630,0.619,�k�k��,8.0,�L
2020/03/29,12:50,0.557,0.767,0.539,1.041,0.678,0.356,0.628,0.618,�k��,8.4,�L
2020/03/29,13:00,0.556,0.766,0.537,1.041,0.676,0.356,0.629,0.617,�k�k��,8.4,�L
2020/03/29,13:10,0.554,0.762,0.536,1.039,0.675,0.354,0.630,0.618,�k�k��,7.0,�L
2020/03/29,13:20,0.553,0.762,0.537,1.038,0.673,0.355,0.629,0.617,�k�k��,7.4,�L
2020/03/29,13:30,0.551,0.760,0.535,1.037,0.671,0.352,0.628,0.617,�k�k��,7.9,�L
2020/03/29,13:40,0.552,0.756,0.534,1.037,0.672,0.352,0.631,0.617,�k�k��,7.6,�L
2020/03/29,13:50,0.550,0.756,0.533,1.036,0.669,0.352,0.632,0.617,�k�k��,7.1,�L
2020/03/29,14:00,0.549,0.755,0.533,1.037,0.669,0.352,0.633,0.618,�k�k��,6.6,�L
2020/03/29,14:10,0.548,0.755,0.532,1.033,0.666,0.350,0.632,0.618,�k�k��,7.3,�L
2020/03/29,14:20,0.548,0.753,0.532,1.037,0.665,0.350,0.631,0.618,�k�k��,7.0,�L
2020/03/29,14:30,0.546,0.753,0.531,1.036,0.667,0.352,0.633,0.618,�k�k��,6.2,�L
2020/03/29,14:40,0.546,0.753,0.532,1.035,0.665,0.350,0.630,0.619,�k�k��,5.8,�L
2020/03/29,14:50,0.545,0.752,0.531,1.036,0.665,0.350,0.633,0.619,�k�k��,6.8,�L
2020/03/29,15:00,0.545,0.752,0.531,1.035,0.666,0.349,0.633,0.620,�k�k��,7.9,�L
2020/03/29,15:10,0.544,0.751,0.531,1.037,0.668,0.350,0.632,0.621,�k��,7.9,�L
2020/03/29,15:20,0.543,0.753,0.532,1.036,0.667,0.349,0.634,0.620,�k��,7.7,�L
2020/03/29,15:30,0.545,0.753,0.532,1.036,0.667,0.350,0.635,0.620,�k�k��,7.1,�L
2020/03/29,15:40,0.545,0.753,0.531,1.037,0.668,0.348,0.638,0.621,�k�k��,7.5,�L
2020/03/29,15:50,0.545,0.752,0.532,1.038,0.669,0.349,0.638,0.622,�k�k��,7.5,�L
2020/03/29,16:00,0.544,0.753,0.532,1.039,0.671,0.349,0.638,0.623,�k�k��,8.0,�L
2020/03/29,16:10,0.544,0.756,0.532,1.043,0.671,0.347,0.639,0.625,�k�k��,8.1,�L
2020/03/29,16:20,0.546,0.754,0.536,1.046,0.676,0.348,0.639,0.624,�k�k��,9.2,�L
2020/03/29,16:30,0.548,0.758,0.537,1.049,0.678,0.348,0.640,0.625,�k�k��,7.9,�L
2020/03/29,16:40,0.549,0.759,0.536,1.049,0.678,0.350,0.642,0.624,�k�k��,8.3,�L
2020/03/29,16:50,0.551,0.761,0.537,1.052,0.680,0.348,0.641,0.627,�k�k��,7.4,�L
2020/03/29,17:00,0.550,0.762,0.537,1.051,0.683,0.350,0.644,0.626,�k�k��,8.6,��
2020/03/29,17:10,0.551,0.765,0.539,1.060,0.684,0.350,0.645,0.629,�k�k��,7.5,��
2020/03/29,17:20,0.553,0.764,0.540,1.058,0.686,0.351,0.645,0.627,�k�k��,8.1,�L
2020/03/29,17:30,0.553,0.764,0.540,1.060,0.686,0.351,0.647,0.630,�k��,8.1,�L
2020/03/29,17:40,0.554,0.767,0.540,1.061,0.689,0.352,0.647,0.627,�k��,7.5,�L
2020/03/29,17:50,0.555,0.768,0.543,1.065,0.692,0.352,0.649,0.629,�k�k��,8.0,��
2020/03/29,18:00,0.556,0.767,0.543,1.067,0.691,0.352,0.649,0.630,�k��,8.3,�L
2020/03/29,18:10,0.556,0.771,0.546,1.067,0.695,0.353,0.649,0.631,�k�k��,7.8,�L
2020/03/29,18:20,0.558,0.771,0.545,1.069,0.694,0.354,0.651,0.630,�k�k��,7.7,��
2020/03/29,18:30,0.560,0.773,0.545,1.069,0.697,0.354,0.651,0.632,�k��,7.5,��
2020/03/29,18:40,0.558,0.774,0.546,1.070,0.698,0.354,0.651,0.631,�k��,7.9,��
2020/03/29,18:50,0.561,0.775,0.547,1.074,0.699,0.355,0.653,0.632,�k��,7.8,��
2020/03/29,19:00,0.563,0.777,0.547,1.074,0.700,0.354,0.652,0.634,�k��,7.5,��
2020/03/29,19:10,0.561,0.778,0.547,1.078,0.702,0.356,0.654,0.633,�k��,6.9,��
2020/03/29,19:20,0.562,0.779,0.549,1.077,0.703,0.358,0.653,0.632,�k��,6.3,��
2020/03/29,19:30,0.564,0.779,0.549,1.080,0.701,0.357,0.653,0.633,�k��,7.0,��
2020/03/29,19:40,0.565,0.779,0.552,1.080,0.703,0.358,0.653,0.635,�k��,6.9,��
2020/03/29,19:50,0.566,0.780,0.548,1.083,0.705,0.358,0.655,0.634,�k�k��,6.8,��
2020/03/29,20:00,0.566,0.781,0.548,1.081,0.705,0.358,0.656,0.635,�k��,7.4,��
2020/03/29,20:10,0.568,0.782,0.551,1.083,0.706,0.358,0.654,0.634,�k�k��,6.8,��
2020/03/29,20:20,0.566,0.783,0.551,1.083,0.706,0.360,0.656,0.633,�k��,6.4,��
2020/03/29,20:30,0.568,0.784,0.553,1.084,0.710,0.358,0.654,0.634,�k��,6.1,��
2020/03/29,20:40,0.567,0.786,0.552,1.086,0.709,0.360,0.655,0.633,�k��,6.5,��
2020/03/29,20:50,0.568,0.785,0.552,1.087,0.708,0.360,0.656,0.636,�k��,5.8,��
2020/03/29,21:00,0.570,0.785,0.552,1.088,0.710,0.360,0.656,0.633,�k��,6.0,��
2020/03/29,21:10,0.570,0.786,0.554,1.088,0.710,0.361,0.656,0.636,�k��,6.3,��
2020/03/29,21:20,0.570,0.785,0.554,1.090,0.712,0.360,0.655,0.636,�k��,6.1,��
2020/03/29,21:30,0.572,0.785,0.555,1.090,0.712,0.361,0.657,0.636,�k��,5.8,��
2020/03/29,21:40,0.572,0.787,0.556,1.087,0.712,0.361,0.657,0.635,�k��,6.0,��
2020/03/29,21:50,0.572,0.788,0.554,1.091,0.713,0.361,0.657,0.635,�k��,6.4,��
2020/03/29,22:00,0.572,0.788,0.555,1.092,0.713,0.361,0.658,0.635,�k��,6.5,��
2020/03/29,22:10,0.574,0.788,0.555,1.092,0.713,0.362,0.657,0.634,�k��,6.5,��
2020/03/29,22:20,0.573,0.790,0.556,1.094,0.715,0.362,0.660,0.635,�k��,6.1,��
2020/03/29,22:30,0.574,0.790,0.557,1.094,0.716,0.363,0.656,0.636,�k��,6.3,��
2020/03/29,22:40,0.575,0.790,0.556,1.094,0.717,0.363,0.659,0.635,�k��,6.4,��
2020/03/29,22:50,0.575,0.792,0.556,1.098,0.718,0.361,0.658,0.636,�k��,6.2,��
2020/03/29,23:00,0.575,0.792,0.557,1.098,0.716,0.362,0.658,0.636,�k��,6.4,��
2020/03/29,23:10,0.575,0.792,0.557,1.097,0.716,0.363,0.658,0.637,�k��,6.7,��
2020/03/29,23:20,0.577,0.791,0.557,1.098,0.716,0.364,0.658,0.637,�k��,5.9,��
2020/03/29,23:30,0.576,0.793,0.557,1.096,0.718,0.363,0.660,0.636,�k��,6.0,��
2020/03/29,23:40,0.575,0.793,0.557,1.098,0.718,0.364,0.658,0.636,�k��,6.5,��
2020/03/29,23:50,0.577,0.793,0.556,1.098,0.718,0.365,0.659,0.637,�k��,6.4,��
